period_start,C,m1,H,J0,J1,J2,J3,J4,J5,JA,JB,JC,JD,JJ,JK,JN,#
2013-12-01 00:00:38,0.16,0.64,0.00,23.75,24.87,28.20,5.85,30.04,998.05,2054.04,3265.07,3167.16,3439.44,350.74,317.75,8.02,0000 0000 0000 0000 000000
2013-12-01 00:01:38,0.07,0.64,0.00,23.82,24.87,28.18,5.73,30.13,998.05,2054.02,3265.02,3167.06,3439.17,348.71,315.89,8.03,0000 0000 0000 0000 000000
2013-12-01 00:02:38,0.03,0.64,0.00,23.83,24.87,28.21,5.82,29.96,998.06,2054.00,3264.98,3167.02,3439.06,350.25,317.40,8.03,0000 0000 0000 0000 000000
2013-12-01 00:03:38,0.02,0.64,0.00,23.82,24.87,28.21,6.00,30.00,998.06,2054.00,3264.68,3166.99,3439.01,351.01,318.23,8.04,0000 0000 0000 0000 000000
2013-12-01 00:04:39,0.05,0.64,0.00,23.79,24.87,28.21,5.79,29.75,998.06,2054.00,3264.30,3166.93,3438.97,350.21,317.39,8.04,0000 0000 0000 0000 000000
2013-12-01 00:05:39,0.09,0.64,0.00,23.73,24.87,28.20,5.80,29.83,998.06,2054.00,3264.11,3166.70,3438.77,350.08,317.34,8.05,0000 0000 0000 0000 000000
2013-12-01 00:06:39,0.07,0.64,0.00,23.74,24.87,28.19,5.87,30.00,998.06,2054.01,3264.04,3166.54,3438.57,350.40,317.68,8.06,0000 0000 0000 0000 000000
2013-12-01 00:07:40,0.09,0.64,0.00,23.78,24.87,28.26,5.81,29.92,998.05,2054.02,3264.00,3166.24,3438.27,349.77,317.14,8.06,0000 0000 0000 0000 000000
2013-12-01 00:08:40,0.10,0.64,0.00,23.77,24.87,28.19,5.81,29.83,998.06,2054.01,3263.96,3166.10,3438.12,350.18,317.18,8.07,0000 0000 0000 0000 000000
2013-12-01 00:09:40,0.06,0.64,0.00,23.77,24.88,28.17,5.91,29.83,998.06,2054.00,3263.63,3166.04,3438.04,349.75,317.29,8.07,0000 0000 0000 0000 000000
2013-12-01 00:10:40,0.05,0.64,0.00,23.85,24.88,28.20,5.69,29.79,998.06,2054.00,3263.30,3166.01,3438.01,348.31,315.37,8.08,0000 0000 0000 0000 000000
2013-12-01 00:11:41,0.05,0.64,0.00,23.85,24.89,28.18,5.88,29.96,998.06,2054.00,3263.12,3165.99,3437.99,349.26,316.47,8.09,0000 0000 0000 0000 000000
2013-12-01 00:12:41,0.02,0.64,0.00,23.85,24.89,28.19,5.89,29.63,998.05,2054.00,3263.04,3165.97,3437.89,350.63,317.70,8.09,0000 0000 0000 0000 000000
2013-12-01 00:13:41,0.05,0.64,0.00,23.82,24.90,28.21,5.84,29.96,998.06,2054.00,3263.01,3165.84,3437.49,350.22,317.17,8.10,0000 0000 0000 0000 000000
2013-12-01 00:14:42,0.06,0.64,0.00,23.82,24.90,28.22,5.82,29.67,997.99,2054.00,3262.94,3165.58,3437.24,350.31,317.44,8.10,0000 0000 0000 0000 000000
2013-12-01 00:15:42,0.12,0.64,0.00,23.84,24.90,28.23,5.93,29.96,998.04,2054.00,3262.55,3165.22,3437.08,350.40,317.51,8.11,0000 0000 0000 0000 000000
2013-12-01 00:16:42,0.13,0.64,0.00,23.80,24.90,28.25,5.77,30.08,998.06,2054.00,3262.21,3165.08,3437.03,349.66,317.06,8.11,0000 0000 0000 0000 000000
2013-12-01 00:17:42,0.07,0.64,0.00,23.84,24.90,28.23,5.81,29.71,998.06,2054.00,3262.08,3165.03,3437.01,350.28,317.41,8.12,0000 0000 0000 0000 000000
2013-12-01 00:18:43,0.02,0.64,0.00,23.84,24.90,28.25,5.98,29.83,998.06,2054.00,3262.03,3165.01,3436.99,350.67,317.75,8.13,0000 0000 0000 0000 000000
2013-12-01 00:19:43,0.01,0.64,0.00,23.83,24.90,28.23,5.70,29.92,998.06,2054.00,3261.99,3165.00,3436.90,349.10,316.35,8.13,0000 0000 0000 0000 000000
2013-12-01 00:20:43,0.02,0.64,0.00,23.80,24.90,28.21,5.83,29.83,998.06,2054.00,3261.92,3164.96,3436.65,350.16,317.47,8.14,0000 0000 0000 0000 000000
2013-12-01 00:21:44,0.05,0.64,0.00,23.78,24.90,28.24,5.83,29.83,998.05,2054.00,3261.52,3164.77,3436.32,350.09,317.42,8.14,0000 0000 0000 0000 000000
2013-12-01 00:22:44,0.15,0.65,0.00,23.76,24.90,28.28,5.84,30.08,998.03,2054.00,3261.20,3164.40,3436.12,349.50,316.65,8.15,0000 0000 0000 0000 000000
2013-12-01 00:23:44,0.14,0.65,0.00,23.77,24.90,28.23,5.83,29.88,998.05,2054.00,3261.07,3164.17,3436.04,350.75,317.90,8.16,0000 0000 0000 0000 000000
2013-12-01 00:24:44,0.07,0.65,0.00,23.77,24.90,28.24,5.92,29.88,997.99,2054.00,3261.00,3164.07,3436.00,350.80,317.94,8.16,0000 0000 0000 0000 000000
2013-12-01 00:25:45,0.03,0.65,0.00,23.84,24.91,28.24,6.02,29.96,998.00,2054.00,3260.95,3164.02,3435.96,350.67,317.74,8.17,0000 0000 0000 0000 000000
2013-12-01 00:26:45,0.01,0.65,0.00,23.83,24.91,28.22,5.88,29.88,998.01,2054.00,3260.77,3164.00,3435.94,350.13,316.42,8.17,0000 0000 0000 0000 000000
2013-12-01 00:27:45,0.05,0.65,0.00,23.82,24.92,28.27,5.88,29.67,998.05,2054.00,3260.35,3163.98,3435.65,349.82,317.09,8.18,0000 0000 0000 0000 000000
2013-12-01 00:28:45,0.10,0.65,0.00,23.80,24.92,28.25,5.95,29.88,998.05,2054.00,3260.12,3163.90,3435.26,350.30,317.67,8.18,0000 0000 0000 0000 000000
2013-12-01 00:29:46,0.08,0.65,0.00,23.82,24.92,28.25,5.92,30.00,998.05,2054.00,3260.04,3163.69,3435.11,350.20,317.35,8.19,0000 0000 0000 0000 000000
2013-12-01 00:30:46,0.08,0.65,0.00,23.86,24.92,28.26,5.99,29.92,998.06,2054.00,3260.01,3163.43,3435.04,351.93,318.88,8.20,0000 0000 0000 0000 000000
2013-12-01 00:31:46,0.08,0.65,0.00,23.90,24.92,28.25,5.75,29.75,998.05,2054.00,3259.90,3163.17,3435.00,349.33,316.61,8.20,0000 0000 0000 0000 000000
2013-12-01 00:32:47,0.08,0.65,0.00,23.86,24.92,28.27,5.79,29.83,998.05,2054.00,3259.47,3163.06,3434.99,350.95,317.99,8.21,0000 0000 0000 0000 000000
2013-12-01 00:33:47,0.07,0.65,0.00,23.83,24.92,28.25,5.90,30.00,998.03,2054.00,3259.19,3163.02,3434.97,350.07,317.22,8.21,0000 0000 0000 0000 000000
2013-12-01 00:34:47,0.05,0.65,0.00,23.78,24.92,28.23,5.86,29.92,998.01,2054.00,3259.07,3163.00,3434.80,349.95,317.17,8.22,0000 0000 0000 0000 000000
2013-12-01 00:35:47,0.05,0.65,0.00,23.75,24.92,28.23,5.84,30.04,998.03,2054.00,3259.01,3163.00,3434.40,349.93,317.18,8.23,0000 0000 0000 0000 000000
2013-12-01 00:36:48,0.05,0.65,0.00,23.75,24.92,28.23,5.87,30.00,998.05,2054.00,3258.98,3162.92,3434.17,350.42,317.63,8.23,0000 0000 0000 0000 000000
2013-12-01 00:37:48,0.04,0.65,0.00,23.82,24.92,28.27,5.97,29.71,998.06,2054.00,3258.87,3162.63,3434.06,350.72,317.66,8.24,0000 0000 0000 0000 000000
2013-12-01 00:38:48,0.09,0.65,0.00,23.80,24.92,28.25,5.83,30.00,998.06,2054.00,3258.55,3162.34,3434.02,350.17,317.35,8.24,0000 0000 0000 0000 000000
2013-12-01 00:39:49,0.11,0.65,0.00,23.79,24.92,28.25,5.65,29.54,998.06,2054.00,3258.25,3162.16,3434.00,348.92,315.67,8.25,0000 0000 0000 0000 000000
2013-12-01 00:40:49,0.07,0.65,0.00,23.84,24.92,28.28,5.96,30.08,998.06,2054.00,3258.09,3162.08,3434.00,350.09,317.23,8.26,0000 0000 0000 0000 000000
2013-12-01 00:41:49,0.04,0.65,0.00,23.78,24.93,28.25,5.84,29.67,998.06,2054.00,3258.03,3162.03,3433.87,350.21,317.41,8.26,0000 0000 0000 0000 000000
2013-12-01 00:42:49,0.03,0.65,0.00,23.75,24.93,28.26,5.77,29.75,998.06,2053.99,3258.00,3161.99,3433.53,350.43,317.64,8.27,0000 0000 0000 0000 000000
2013-12-01 00:43:50,0.05,0.65,0.00,23.82,24.93,28.28,5.90,30.13,998.06,2053.99,3257.79,3161.98,3433.21,349.21,316.46,8.27,0000 0000 0000 0000 000000
2013-12-01 00:44:50,0.07,0.65,0.00,23.76,24.94,28.29,5.73,29.83,998.06,2053.99,3257.39,3161.90,3433.09,349.26,316.96,8.28,0000 0000 0000 0000 000000
2013-12-01 00:45:50,0.09,0.65,0.00,23.74,24.94,28.25,5.90,29.92,998.06,2053.99,3257.17,3161.72,3433.03,350.78,318.17,8.28,0000 0000 0000 0000 000000
2013-12-01 00:46:51,0.07,0.65,0.00,23.75,24.94,28.24,5.78,30.00,998.06,2053.99,3257.06,3161.47,3433.01,350.07,317.31,8.29,0000 0000 0000 0000 000000
2013-12-01 00:47:51,0.07,0.66,0.00,23.77,24.95,28.25,5.96,29.96,998.06,2053.99,3257.02,3161.21,3432.99,351.24,318.36,8.30,0000 0000 0000 0000 000000
2013-12-01 00:48:51,0.06,0.66,0.00,23.79,24.95,28.23,5.80,29.83,998.06,2053.99,3256.99,3161.09,3432.95,349.91,317.13,8.30,0000 0000 0000 0000 000000
2013-12-01 00:49:51,0.02,0.66,0.00,23.86,24.95,28.27,5.82,29.75,998.06,2053.98,3256.84,3161.03,3432.77,349.86,317.01,8.31,0000 0000 0000 0000 000000
2013-12-01 00:50:52,0.06,0.66,0.00,23.89,24.95,28.28,5.69,29.88,998.06,2053.99,3256.44,3160.99,3432.41,348.73,315.94,8.31,0000 0000 0000 0000 000000
2013-12-01 00:51:52,0.11,0.66,0.00,23.84,24.95,28.25,5.77,29.83,998.06,2053.98,3256.16,3160.99,3432.18,349.58,316.77,8.32,0000 0000 0000 0000 000000
2013-12-01 00:52:52,0.05,0.66,0.00,23.81,24.95,28.25,5.89,29.96,998.06,2053.97,3256.05,3160.98,3432.07,350.22,317.39,8.33,0000 0000 0000 0000 000000
2013-12-01 00:53:52,0.02,0.66,0.00,23.86,24.95,28.26,5.94,30.17,998.06,2053.99,3256.02,3160.92,3432.02,350.59,317.85,8.33,0000 0000 0000 0000 000000
2013-12-01 00:54:52,0.04,0.66,0.00,23.84,24.95,28.25,5.78,29.75,998.06,2053.98,3256.00,3160.67,3432.00,349.66,317.18,8.34,0000 0000 0000 0000 000000
2013-12-01 00:55:53,0.07,0.66,0.00,23.84,24.95,28.28,5.80,29.83,998.06,2053.98,3255.93,3160.35,3431.98,349.65,316.70,8.34,0000 0000 0000 0000 000000
2013-12-01 00:56:53,0.07,0.66,0.00,23.86,24.95,28.27,5.85,29.88,998.06,2053.99,3255.57,3160.15,3431.95,350.11,317.23,8.35,0000 0000 0000 0000 000000
2013-12-01 00:57:53,0.11,0.66,0.00,23.88,24.95,28.28,5.82,29.96,998.06,2053.99,3255.26,3160.05,3431.86,349.30,316.24,8.35,0000 0000 0000 0000 000000
2013-12-01 00:58:54,0.07,0.66,0.00,23.84,24.95,28.22,5.63,29.54,998.06,2053.98,3255.10,3160.02,3431.52,349.98,317.44,8.36,0000 0000 0000 0000 000000
2013-12-01 00:59:54,0.06,0.66,0.00,23.80,24.95,28.24,5.86,29.83,998.07,2053.97,3255.03,3160.00,3431.21,350.96,318.31,8.37,0000 0000 0000 0000 000000
2013-12-01 01:00:54,0.05,0.66,0.00,23.82,24.95,28.24,5.86,29.88,998.08,2053.96,3255.00,3159.97,3431.07,350.46,317.61,8.37,0000 0000 0000 0000 000000
2013-12-01 01:01:54,0.01,0.66,0.00,23.81,24.95,28.26,5.84,30.00,998.06,2053.98,3254.96,3159.98,3431.02,349.60,316.94,8.38,0000 0000 0000 0000 000000
2013-12-01 01:02:55,0.02,0.66,0.00,23.78,24.95,28.28,5.71,29.63,998.08,2053.98,3254.77,3159.96,3431.00,349.55,316.82,8.38,0000 0000 0000 0000 000000
2013-12-01 01:03:55,0.03,0.66,0.00,23.76,24.95,28.27,5.77,29.96,998.06,2053.98,3254.44,3159.87,3431.00,349.16,316.99,8.39,0000 0000 0000 0000 000000
2013-12-01 01:04:55,0.08,0.66,0.00,23.79,24.95,28.28,5.78,30.04,998.07,2053.96,3254.19,3159.49,3430.93,349.21,316.88,8.40,0000 0000 0000 0000 000000
2013-12-01 01:05:55,0.10,0.66,0.00,23.83,24.95,28.27,5.86,29.67,998.08,2053.98,3254.07,3159.26,3430.84,351.23,318.35,8.40,0000 0000 0000 0000 000000
2013-12-01 01:06:56,0.08,0.66,0.00,23.84,24.96,28.27,5.81,29.79,998.12,2053.97,3254.02,3159.12,3430.61,350.61,317.72,8.41,0000 0000 0000 0000 000000
2013-12-01 01:07:56,0.07,0.66,0.00,23.86,24.97,28.25,5.75,29.75,998.13,2053.97,3254.00,3159.04,3430.27,349.41,316.62,8.41,0000 0000 0000 0000 000000
2013-12-01 01:08:56,0.05,0.66,0.00,23.88,24.97,28.22,5.83,29.63,998.16,2053.99,3253.99,3159.02,3430.11,351.20,318.23,8.42,0000 0000 0000 0000 000000
2013-12-01 01:09:56,0.02,0.66,0.00,23.84,24.97,28.25,6.00,29.92,998.16,2053.99,3253.88,3159.01,3430.04,351.46,318.24,8.43,0000 0000 0000 0000 000000
2013-12-01 01:10:56,0.03,0.66,0.00,23.86,24.97,28.27,5.84,29.92,998.26,2053.99,3253.51,3158.99,3430.01,349.74,316.97,8.43,0000 0000 0000 0000 000000
2013-12-01 01:11:57,0.06,0.66,0.00,23.89,24.97,28.30,5.74,29.88,998.24,2053.97,3253.23,3158.99,3430.00,349.55,316.75,8.44,0000 0000 0000 0000 000000
2013-12-01 01:12:57,0.03,0.66,0.00,23.89,24.97,28.30,5.92,29.88,998.23,2053.99,3253.09,3158.99,3430.00,350.75,317.83,8.44,0000 0000 0000 0000 000000
2013-12-01 01:13:57,0.02,0.66,0.00,23.84,24.97,28.26,5.74,29.83,998.26,2053.99,3253.03,3158.97,3430.00,349.71,316.77,8.45,0000 0000 0000 0000 000000
2013-12-01 01:14:58,0.02,0.66,0.00,23.83,24.97,28.28,5.71,29.88,998.30,2053.98,3253.01,3158.76,3429.96,348.76,316.12,8.45,0000 0000 0000 0000 000000
2013-12-01 01:15:58,0.04,0.66,0.00,23.83,24.97,28.29,5.73,29.83,998.22,2053.97,3252.99,3158.37,3429.70,349.28,316.75,8.46,0000 0000 0000 0000 000000
2013-12-01 01:16:58,0.12,0.67,0.00,23.84,24.97,28.29,5.72,29.58,998.21,2053.96,3252.95,3158.16,3429.41,349.51,316.81,8.47,0000 0000 0000 0000 000000
2013-12-01 01:17:59,0.09,0.67,0.00,23.79,24.97,28.29,5.86,29.75,998.19,2053.97,3252.63,3158.05,3429.16,349.76,317.10,8.47,0000 0000 0000 0000 000000
2013-12-01 01:18:59,0.10,0.67,0.00,23.81,24.97,28.29,5.86,29.71,998.24,2053.97,3252.32,3158.02,3429.06,349.97,317.22,8.48,0000 0000 0000 0000 000000
2013-12-01 01:19:59,0.06,0.67,0.00,23.81,24.97,28.26,5.75,29.71,998.26,2053.99,3252.13,3158.00,3429.02,348.92,316.59,8.48,0000 0000 0000 0000 000000
2013-12-01 01:20:59,0.04,0.67,0.00,23.87,24.97,28.29,5.81,29.67,998.22,2053.99,3252.06,3157.99,3429.00,350.32,317.47,8.49,0000 0000 0000 0000 000000
2013-12-01 01:21:59,0.01,0.67,0.00,23.91,24.97,28.31,5.89,29.58,998.27,2053.97,3252.02,3157.99,3428.99,350.80,317.87,8.50,0000 0000 0000 0000 000000
2013-12-01 01:23:00,-0.01,0.67,0.00,23.91,24.97,28.27,5.94,29.88,998.24,2053.95,3252.00,3157.98,3428.99,351.34,318.36,8.50,0000 0000 0000 0000 000000
2013-12-01 01:24:00,-0.00,0.67,0.00,23.89,24.97,28.26,5.94,30.13,998.36,2053.95,3251.99,3157.94,3428.92,349.85,317.37,8.51,0000 0000 0000 0000 000000
2013-12-01 01:25:00,0.02,0.67,0.00,23.83,24.97,28.27,5.87,29.83,998.37,2053.97,3251.90,3157.78,3428.76,350.14,317.17,8.51,0000 0000 0000 0000 000000
2013-12-01 01:26:00,0.09,0.67,0.00,23.84,24.97,28.29,5.85,29.79,998.37,2053.99,3251.67,3157.53,3428.46,350.77,317.83,8.52,0000 0000 0000 0000 000000
2013-12-01 01:27:01,0.15,0.67,0.00,23.84,24.97,28.29,5.89,29.88,998.27,2053.97,3251.32,3157.27,3428.20,349.83,317.16,8.52,0000 0000 0000 0000 000000
2013-12-01 01:28:01,0.14,0.67,0.00,23.82,24.97,28.28,5.85,29.96,998.27,2053.92,3251.11,3157.11,3428.07,350.25,317.47,8.53,0000 0000 0000 0000 000000
2013-12-01 01:29:01,-0.01,0.67,0.00,23.81,24.97,28.28,5.83,29.96,998.29,2053.92,3251.04,3157.04,3428.03,349.34,316.65,8.54,0000 0000 0000 0000 000000
2013-12-01 01:30:02,0.03,0.67,0.00,23.92,24.97,28.31,5.94,30.25,998.17,2053.92,3251.01,3157.01,3428.01,350.93,317.96,8.54,0000 0000 0000 0000 000000
2013-12-01 01:31:02,0.03,0.67,0.00,23.94,24.97,28.31,5.81,29.92,998.09,2053.92,3251.00,3157.00,3428.00,349.64,316.74,8.55,0000 0000 0000 0000 000000
2013-12-01 01:32:02,-0.02,0.67,0.00,23.95,24.97,28.31,5.74,29.71,998.08,2053.92,3250.99,3157.00,3428.00,350.03,317.20,8.55,0000 0000 0000 0000 000000
2013-12-01 01:33:02,0.03,0.67,0.00,23.97,24.97,28.31,5.72,29.79,998.09,2053.95,3250.96,3157.00,3427.98,348.72,315.87,8.56,0000 0000 0000 0000 000000
2013-12-01 01:34:03,0.01,0.67,0.00,23.98,24.97,28.30,5.81,29.75,998.09,2053.96,3250.86,3157.00,3427.95,350.22,317.22,8.57,0000 0000 0000 0000 000000
2013-12-01 01:35:03,0.03,0.67,0.00,23.90,24.97,28.28,5.86,29.92,998.08,2053.96,3250.53,3156.99,3427.89,349.92,317.02,8.57,0000 0000 0000 0000 000000
2013-12-01 01:36:03,0.06,0.67,0.00,23.89,24.97,28.29,5.95,29.96,998.11,2053.94,3250.24,3156.97,3427.69,350.51,317.93,8.58,0000 0000 0000 0000 000000
2013-12-01 01:37:03,0.03,0.67,0.00,23.89,24.97,28.27,5.85,29.88,998.13,2053.92,3250.11,3156.91,3427.38,350.06,316.74,8.58,0000 0000 0000 0000 000000
2013-12-01 01:38:03,0.08,0.67,0.00,23.95,24.97,28.30,5.80,29.54,998.15,2053.92,3250.05,3156.64,3427.17,350.00,317.24,8.59,0000 0000 0000 0000 000000
2013-12-01 01:39:04,0.09,0.67,0.00,23.92,24.97,28.30,5.92,29.92,998.20,2053.92,3250.01,3156.42,3427.08,350.29,317.56,8.60,0000 0000 0000 0000 000000
2013-12-01 01:40:04,0.07,0.67,0.00,23.88,24.97,28.31,5.83,29.71,998.26,2053.91,3250.00,3156.20,3427.03,350.16,317.33,8.60,0000 0000 0000 0000 000000
2013-12-01 01:41:04,0.03,0.67,0.00,23.90,24.98,28.30,5.85,29.58,998.23,2053.92,3250.00,3156.09,3427.01,349.81,316.87,8.61,0000 0000 0000 0000 000000
2013-12-01 01:42:04,0.00,0.67,0.00,23.88,24.98,28.31,6.02,30.04,998.29,2053.86,3249.98,3156.03,3427.00,350.92,317.98,8.61,0000 0000 0000 0000 000000
2013-12-01 01:43:05,0.00,0.67,0.00,23.89,24.99,28.31,5.91,29.88,998.29,2053.86,3249.74,3156.01,3427.00,350.04,317.21,8.62,0000 0000 0000 0000 000000
2013-12-01 01:44:05,0.03,0.67,0.00,23.92,24.99,28.33,5.87,29.83,998.31,2053.69,3249.33,3155.99,3426.95,349.85,317.16,8.62,0000 0000 0000 0000 000000
2013-12-01 01:45:05,-0.11,0.67,0.00,23.91,24.99,28.31,5.84,29.88,998.42,2053.59,3249.14,3155.99,3426.80,350.24,317.76,8.63,0000 0000 0000 0000 000000
2013-12-01 01:46:05,0.02,0.67,0.00,23.92,25.00,28.34,5.76,29.71,998.47,2053.53,3249.05,3155.98,3426.57,349.73,316.98,8.64,0000 0000 0000 0000 000000
2013-12-01 01:47:05,-0.02,0.67,0.00,23.99,25.00,28.36,5.88,29.96,998.44,2053.58,3249.01,3155.96,3426.40,349.86,316.96,8.64,0000 0000 0000 0000 000000
2013-12-01 01:48:05,0.07,0.67,0.00,24.00,25.00,28.33,5.75,30.00,998.35,2053.57,3249.00,3155.95,3426.25,350.11,316.92,8.65,0000 0000 0000 0000 000000
2013-12-01 01:49:06,-0.03,0.67,0.00,23.96,25.00,28.29,5.84,29.63,998.43,2053.58,3249.00,3155.72,3426.12,351.24,318.27,8.65,0000 0000 0000 0000 000000
2013-12-01 01:50:06,0.13,0.67,0.00,23.88,25.00,28.30,5.96,30.17,998.45,2053.58,3248.98,3155.59,3426.05,350.05,317.27,8.66,0000 0000 0000 0000 000000
2013-12-01 01:51:06,0.04,0.67,0.00,23.89,25.00,28.31,5.87,30.00,998.46,2053.56,3248.93,3155.41,3426.02,349.91,317.15,8.67,0000 0000 0000 0000 000000
2013-12-01 01:52:06,0.01,0.67,0.00,23.89,25.00,28.31,5.85,29.79,998.48,2053.54,3248.75,3155.21,3426.00,350.08,317.30,8.67,0000 0000 0000 0000 000000
2013-12-01 01:53:06,0.09,0.67,0.00,23.92,25.00,28.32,5.79,30.13,998.51,2053.57,3248.41,3155.11,3426.00,350.75,317.89,8.68,0000 0000 0000 0000 000000
2013-12-01 01:54:07,0.07,0.67,0.00,23.96,25.00,28.31,5.89,29.67,998.51,2053.54,3248.19,3155.05,3426.00,349.54,316.75,8.68,0000 0000 0000 0000 000000
2013-12-01 01:55:07,0.00,0.67,0.00,24.00,25.00,28.32,5.91,29.75,998.52,2053.39,3248.07,3155.01,3425.97,351.19,318.21,8.69,0000 0000 0000 0000 000000
2013-12-01 01:56:07,-0.11,0.67,0.00,23.99,25.00,28.31,5.83,29.63,998.53,2053.38,3248.03,3155.00,3425.87,350.43,317.54,8.69,0000 0000 0000 0000 000000
2013-12-01 01:57:07,0.04,0.67,0.00,23.98,25.00,28.32,5.67,29.54,998.55,2053.47,3248.00,3155.00,3425.76,348.81,316.09,8.70,0000 0000 0000 0000 000000
2013-12-01 01:58:07,0.08,0.67,0.00,24.01,25.00,28.32,5.72,29.58,998.55,2053.57,3248.00,3155.00,3425.64,348.76,316.00,8.71,0000 0000 0000 0000 000000
2013-12-01 01:59:08,0.10,0.68,0.00,24.00,25.00,28.33,5.88,29.71,998.55,2053.52,3247.97,3154.99,3425.29,350.32,317.42,8.71,0000 0000 0000 0000 000000
2013-12-01 02:00:08,0.00,0.68,0.00,23.94,25.00,28.33,5.80,29.79,998.55,2053.35,3247.83,3154.92,3425.11,349.08,316.54,8.72,0000 0000 0000 0000 000000
2013-12-01 02:01:08,-0.07,0.67,0.00,23.94,25.01,28.34,5.73,29.54,998.55,2053.24,3247.47,3154.75,3425.05,349.98,317.19,8.72,0000 0000 0000 0000 000000
2013-12-01 02:02:09,0.03,0.67,0.00,23.89,25.02,28.29,5.72,29.63,998.55,2053.18,3247.20,3154.46,3425.02,349.45,316.88,8.73,0000 0000 0000 0000 000000
2013-12-01 02:03:09,0.05,0.68,0.00,23.90,25.02,28.30,5.80,29.46,998.55,2053.17,3247.08,3154.25,3425.00,350.70,317.88,8.74,0000 0000 0000 0000 000000
2013-12-01 02:04:09,0.06,0.68,0.00,23.90,25.02,28.33,5.86,29.67,998.55,2053.11,3247.03,3154.09,3424.99,350.32,317.54,8.74,0000 0000 0000 0000 000000
2013-12-01 02:05:09,-0.01,0.68,0.00,23.90,25.02,28.36,5.78,30.13,998.55,2053.14,3247.01,3154.05,3424.97,350.30,317.52,8.75,0000 0000 0000 0000 000000
2013-12-01 02:06:09,0.06,0.68,0.00,23.90,25.02,28.33,5.81,29.71,998.55,2053.11,3247.00,3154.02,3424.92,349.78,317.05,8.75,0000 0000 0000 0000 000000
2013-12-01 02:07:10,-0.01,0.68,0.00,23.89,25.02,28.33,5.87,29.58,998.55,2053.10,3246.99,3154.00,3424.79,350.06,317.09,8.76,0000 0000 0000 0000 000000
2013-12-01 02:08:10,0.00,0.68,0.00,23.87,25.02,28.33,5.79,29.79,998.55,2053.16,3246.91,3154.00,3424.61,349.70,316.71,8.76,0000 0000 0000 0000 000000
2013-12-01 02:09:10,0.08,0.68,0.00,23.90,25.02,28.36,5.78,29.71,998.55,2053.14,3246.50,3154.00,3424.28,349.93,317.37,8.77,0000 0000 0000 0000 000000
2013-12-01 02:10:11,0.09,0.68,0.00,23.94,25.02,28.35,5.74,29.79,998.55,2053.09,3246.19,3154.00,3424.11,348.92,316.22,8.78,0000 0000 0000 0000 000000
2013-12-01 02:11:11,0.03,0.68,0.00,24.01,25.02,28.33,5.80,29.67,998.55,2053.08,3246.10,3153.95,3424.05,350.25,317.36,8.78,0000 0000 0000 0000 000000
2013-12-01 02:12:11,0.01,0.68,0.00,23.98,25.02,28.36,5.78,30.04,998.55,2053.08,3246.05,3153.91,3424.02,350.21,317.28,8.79,0000 0000 0000 0000 000000
2013-12-01 02:13:12,0.01,0.68,0.00,24.00,25.02,28.36,5.69,29.58,998.55,2053.09,3246.01,3153.75,3424.00,349.67,316.84,8.79,0000 0000 0000 0000 000000
2013-12-01 02:14:12,0.03,0.68,0.00,24.03,25.02,28.34,5.83,29.63,998.55,2053.08,3246.00,3153.59,3424.00,349.27,316.44,8.80,0000 0000 0000 0000 000000
2013-12-01 02:15:12,0.03,0.68,0.00,24.02,25.02,28.36,5.90,29.46,998.55,2053.05,3245.99,3153.27,3424.00,350.64,318.00,8.81,0000 0000 0000 0000 000000
2013-12-01 02:16:12,0.06,0.68,0.00,24.06,25.02,28.37,5.74,29.58,998.55,2053.05,3245.98,3153.12,3423.96,349.16,316.17,8.81,0000 0000 0000 0000 000000
2013-12-01 02:17:13,0.05,0.68,0.00,24.04,25.02,28.38,5.92,29.63,998.55,2053.05,3245.97,3153.08,3423.94,351.08,318.07,8.82,0000 0000 0000 0000 000000
2013-12-01 02:18:13,0.01,0.68,0.00,24.00,25.02,28.36,5.85,29.58,998.55,2053.05,3245.86,3153.04,3423.79,349.93,317.10,8.82,0000 0000 0000 0000 000000
2013-12-01 02:19:13,0.05,0.68,0.00,23.99,25.03,28.38,5.99,30.08,998.55,2053.04,3245.51,3153.01,3423.43,350.50,317.42,8.83,0000 0000 0000 0000 000000
2013-12-01 02:20:13,0.09,0.68,0.00,24.03,25.03,28.37,5.80,29.54,998.55,2053.05,3245.25,3153.00,3423.20,350.48,317.43,8.83,0000 0000 0000 0000 000000
2013-12-01 02:21:14,0.05,0.68,0.00,24.06,25.04,28.36,5.80,29.67,998.54,2053.03,3245.10,3153.00,3423.08,349.44,316.57,8.84,0000 0000 0000 0000 000000
2013-12-01 02:22:14,0.02,0.68,0.00,24.11,25.04,28.39,5.75,29.67,998.55,2053.04,3245.03,3153.00,3423.03,349.05,316.02,8.85,0000 0000 0000 0000 000000
2013-12-01 02:23:14,0.01,0.68,0.00,24.08,25.05,28.38,5.91,29.88,998.55,2053.04,3245.01,3152.99,3423.02,349.55,316.65,8.85,0000 0000 0000 0000 000000
2013-12-01 02:24:14,0.01,0.68,0.00,24.05,25.05,28.36,5.85,29.67,998.55,2053.01,3245.00,3152.96,3423.00,349.79,316.96,8.86,0000 0000 0000 0000 000000
2013-12-01 02:25:15,-0.01,0.68,0.00,24.05,25.05,28.38,5.85,29.67,998.55,2053.00,3244.99,3152.94,3423.00,349.86,316.86,8.86,0000 0000 0000 0000 000000
2013-12-01 02:26:15,0.00,0.68,0.00,24.06,25.05,28.38,5.77,29.38,998.55,2053.00,3244.98,3152.88,3422.99,349.52,316.43,8.87,0000 0000 0000 0000 000000
2013-12-01 02:27:15,0.02,0.68,0.00,24.12,25.05,28.38,5.87,29.83,998.55,2053.00,3244.97,3152.79,3422.96,350.16,317.39,8.88,0000 0000 0000 0000 000000
2013-12-01 02:28:15,0.02,0.68,0.00,24.08,25.05,28.41,5.85,29.58,998.55,2053.01,3244.96,3152.51,3422.84,349.93,316.99,8.88,0000 0000 0000 0000 000000
2013-12-01 02:29:16,0.10,0.68,0.00,24.04,25.05,28.40,5.88,29.46,998.55,2053.01,3244.86,3152.28,3422.59,350.28,317.35,8.89,0000 0000 0000 0000 000000
2013-12-01 02:30:16,0.08,0.68,0.00,24.05,25.05,28.37,5.77,29.58,998.55,2053.03,3244.68,3152.18,3422.39,349.72,316.83,8.89,0000 0000 0000 0000 000000
2013-12-01 02:31:16,0.09,0.68,0.00,24.07,25.05,28.39,5.78,29.54,998.55,2053.02,3244.39,3152.09,3422.20,349.66,316.46,8.90,0000 0000 0000 0000 000000
2013-12-01 02:32:16,0.07,0.68,0.00,24.03,25.05,28.40,5.90,29.67,998.55,2053.01,3244.16,3152.03,3422.11,350.91,317.94,8.91,0000 0000 0000 0000 000000
2013-12-01 02:33:17,0.04,0.68,0.00,24.00,25.05,28.40,5.82,29.67,998.55,2053.00,3244.07,3152.02,3422.04,349.84,317.00,8.91,0000 0000 0000 0000 000000
2013-12-01 02:34:17,0.02,0.68,0.00,24.01,25.06,28.38,5.88,29.71,998.55,2053.00,3244.03,3152.00,3422.02,349.83,316.97,8.92,0000 0000 0000 0000 000000
2013-12-01 02:35:17,0.01,0.68,0.00,24.01,25.07,28.38,5.82,29.71,998.55,2053.00,3244.01,3152.00,3422.00,350.21,317.43,8.92,0000 0000 0000 0000 000000
2013-12-01 02:36:18,0.00,0.68,0.00,24.01,25.07,28.39,5.87,29.79,998.55,2053.00,3244.00,3152.00,3422.00,350.15,317.26,8.93,0000 0000 0000 0000 000000
2013-12-01 02:37:18,0.00,0.68,0.00,24.03,25.07,28.38,5.85,29.71,998.56,2053.00,3244.00,3152.00,3422.00,349.55,316.69,8.93,0000 0000 0000 0000 000000
2013-12-01 02:38:18,0.00,0.68,0.00,24.02,25.07,28.39,5.88,29.63,998.55,2053.00,3244.00,3151.99,3422.00,350.80,317.85,8.94,0000 0000 0000 0000 000000